Wind_Speed
26 26 26 26 26 27 27 27 27 26 27 29 30 31 30 31 32 33 33 35 35 35 35 36 37 38 38 39 39 39 40 40 40 40 40 39 40 40 40 40 40 40 40 40
27 27 27 26 26 27 27 28 28 28 28 29 30 31 31 31 31 32 33 34 34 36 36 36 38 38 39 39 39 40 40 41 41 41 40 40 41 41 41 41 41 41 41 41
27 27 27 27 26 26 27 28 28 29 29 30 31 31 30 30 30 32 33 34 35 36 36 36 37 38 39 39 39 39 40 41 41 41 40 40 41 41 41 42 43 43 43 43
27 26 27 27 27 27 27 28 29 29 30 30 30 32 30 30 29 30 32 33 34 35 36 37 37 38 39 39 39 39 40 40 41 41 41 41 41 41 41 42 43 44 43 43
26 26 26 26 26 27 28 28 28 29 30 31 30 32 31 30 30 30 31 32 33 34 36 37 37 38 38 39 40 40 40 40 41 41 42 42 42 42 42 43 43 44 43 42
26 26 26 25 25 26 27 28 28 28 30 31 29 30 31 30 30 31 31 32 33 34 35 36 37 37 37 38 40 41 41 40 41 42 42 42 43 43 43 43 43 44 44 42
27 26 26 26 26 26 26 27 28 29 29 30 29 31 31 29 29 29 30 31 32 32 33 33 35 35 36 38 39 40 40 41 41 42 42 42 42 42 42 42 43 44 44 44
28 27 27 27 27 27 27 27 27 29 30 30 30 31 29 28 28 29 29 30 30 30 31 32 33 34 35 37 39 39 40 41 41 42 42 42 41 42 42 42 42 43 44 44
28 28 27 27 27 28 28 27 27 28 29 30 29 30 29 27 28 28 29 30 30 31 31 32 33 33 34 35 37 38 39 40 41 41 41 42 42 42 42 42 42 43 43 44
28 29 28 28 28 28 28 28 27 28 28 28 28 28 29 28 28 29 29 29 30 31 32 34 34 34 34 35 36 37 38 39 40 40 41 41 41 41 42 42 43 43 43 44
29 29 29 28 28 28 27 27 27 28 29 29 29 28 28 29 29 29 29 30 30 31 33 34 35 35 35 35 36 37 38 38 39 39 39 40 41 41 41 41 42 43 43 44
30 31 31 30 29 28 27 27 27 28 29 30 31 30 29 30 31 31 31 30 31 32 33 34 34 34 35 35 36 36 36 37 37 38 38 38 39 39 40 41 41 41 41 42
31 32 32 31 29 28 28 27 28 29 30 31 31 31 30 30 31 31 32 31 32 33 33 33 33 34 34 34 35 35 35 35 35 36 37 37 38 38 39 39 40 41 41 42
32 32 31 31 30 29 29 28 28 29 30 30 30 30 30 30 31 31 31 31 32 32 32 32 32 33 33 33 33 34 34 34 34 35 35 37 38 39 39 40 41 41 41 41
32 31 31 30 30 30 30 29 30 30 30 31 30 31 30 31 30 30 30 30 30 30 30 31 31 31 31 32 33 33 33 33 34 35 35 35 36 37 38 38 39 39 40 40
31 31 30 29 30 31 31 30 30 30 30 32 32 31 30 30 30 30 29 29 29 28 28 29 30 30 31 32 32 32 32 32 32 33 34 34 35 36 36 37 37 38 38 38
32 32 31 31 31 31 31 30 31 30 31 32 31 30 30 31 30 29 29 28 28 28 29 29 29 30 31 31 31 31 32 32 32 32 33 34 34 35 35 35 36 36 36 36
32 31 32 32 32 32 31 30 31 31 31 31 30 29 30 30 29 28 27 27 27 28 29 29 29 29 30 30 31 30 30 31 31 32 33 33 34 34 34 34 34 34 34 34
30 30 31 32 32 32 30 30 30 31 30 30 30 30 30 30 29 28 28 28 28 28 29 29 29 29 29 30 29 29 29 30 30 31 31 32 33 34 34 34 34 33 33 33
29 29 30 31 32 31 30 30 30 30 30 29 29 29 29 29 29 27 28 29 29 29 29 29 29 29 29 29 29 29 29 29 30 30 30 30 31 31 31 31 31 32 32 32
28 29 29 30 31 31 30 30 30 30 29 29 28 28 28 27 28 28 28 29 30 30 29 29 29 29 29 29 29 29 28 28 28 29 28 28 28 29 29 29 29 30 30 31
27 29 29 29 29 29 29 29 29 29 29 29 28 28 28 28 28 29 29 29 29 29 29 29 29 28 28 29 29 28 28 28 28 27 27 27 28 28 28 28 28 29 30 30
28 28 29 29 28 28 28 28 29 29 28 28 28 27 28 28 28 28 29 29 28 28 28 28 28 28 28 28 29 28 28 28 28 28 28 28 28 27 27 27 28 29 30 30
28 28 29 29 28 28 28 28 28 27 27 27 26 26 26 26 27 27 28 28 28 27 27 27 27 27 27 27 27 27 27 27 27 27 28 28 27 27 27 27 28 28 29 29
26 27 28 28 27 28 28 28 27 27 27 27 27 27 27 26 26 27 27 27 27 27 27 26 25 26 26 26 26 26 26 26 26 26 27 27 27 26 27 27 27 27 28 28
26 27 27 27 27 28 27 27 27 27 27 27 27 28 27 27 27 28 28 27 27 27 26 26 25 25 25 25 25 25 25 25 25 25 25 25 26 26 26 26 26 26 26 26
Wind_Direction
288 289 291 289 285 282 282 280 275 271 270 269 268 265 263 261 260 260 259 257 257 258 257 258 258 257 257 257 257 256 256 257 258 258 258 259 258 259 260 261 263 264 265 268
290 290 291 290 287 284 281 279 276 272 272 271 269 267 267 264 263 262 261 259 259 258 259 260 260 260 259 258 257 257 257 257 258 258 258 259 259 259 260 261 263 265 266 268
291 292 291 289 287 286 283 282 279 275 272 272 271 269 267 267 266 265 265 263 262 261 260 261 260 261 261 259 258 257 257 257 257 258 258 258 259 260 262 262 263 265 267 268
292 293 292 289 287 286 285 284 281 277 274 273 273 273 269 269 268 268 268 266 264 262 262 263 263 262 261 261 259 259 258 258 258 258 257 258 259 260 262 263 264 265 266 267
292 293 293 291 289 288 287 286 283 279 277 275 275 275 272 271 270 269 270 268 268 267 266 264 263 263 261 261 261 260 260 259 259 258 258 258 259 261 262 263 263 265 266 266
292 293 294 293 290 289 288 286 283 280 279 277 278 277 276 275 275 272 271 270 270 270 268 266 265 265 263 262 261 261 261 261 260 260 260 260 260 261 262 262 263 264 265 266
291 291 291 291 290 289 289 288 286 282 279 278 280 279 280 280 279 277 275 272 271 271 270 267 266 265 263 262 263 262 262 262 262 261 261 261 261 261 262 262 263 264 265 266
290 290 290 289 289 289 289 287 287 284 283 282 281 281 282 280 280 279 278 275 272 272 271 269 268 268 265 264 264 263 263 263 263 262 262 262 262 261 262 263 264 264 265 266
289 289 289 289 288 288 288 287 287 285 283 283 282 282 281 280 279 277 277 275 273 272 272 271 270 270 268 266 264 264 264 264 263 263 262 262 261 261 263 264 265 265 265 266
287 287 288 287 287 287 287 286 284 283 281 282 283 283 284 282 278 276 276 276 274 272 273 272 272 271 271 269 267 266 265 265 264 263 262 262 261 262 262 264 265 265 266 267
286 287 287 286 285 286 285 284 283 282 279 279 282 284 285 285 281 277 276 277 275 273 274 274 273 272 272 271 269 267 265 265 265 264 263 262 262 262 262 264 265 266 267 268
286 286 286 286 286 284 283 284 282 280 279 278 279 281 284 285 284 280 278 277 275 275 274 274 274 273 272 272 270 268 267 266 265 264 263 263 262 262 263 263 264 265 267 268
284 284 285 285 284 283 282 284 284 282 279 277 278 282 282 283 283 282 279 277 276 276 275 275 274 273 273 272 271 269 268 267 266 265 263 262 262 262 264 265 266 267 267 268
281 280 281 283 283 281 281 283 283 282 280 279 278 281 281 281 282 282 280 277 277 277 276 275 275 274 274 273 272 270 268 267 266 265 264 263 262 264 265 265 266 267 268 268
279 279 279 280 279 278 279 280 281 281 280 279 279 280 281 281 281 281 281 280 278 277 276 275 275 274 274 273 272 272 269 267 266 264 264 264 265 266 266 266 266 266 267 268
277 278 279 279 278 278 279 281 281 280 280 280 279 280 280 279 279 279 279 279 278 276 276 276 275 274 274 274 273 272 269 268 267 265 264 265 265 265 265 266 266 266 267 267
277 278 279 280 280 279 280 282 282 282 282 281 281 280 279 278 278 278 278 277 278 278 278 278 278 277 276 275 274 273 271 269 269 267 266 266 265 265 266 266 266 267 267 267
277 278 280 281 281 280 284 284 283 283 283 282 280 279 279 279 279 278 278 280 280 280 280 280 279 279 279 278 277 276 273 271 271 270 269 267 266 267 267 268 268 267 267 268
277 280 280 281 282 283 285 285 283 283 283 282 279 278 277 277 277 277 278 280 281 281 281 281 280 281 281 280 278 278 275 273 273 273 271 269 269 268 268 267 267 267 268 270
277 279 280 281 282 284 287 286 285 285 285 284 281 279 277 275 275 276 277 279 281 281 282 281 280 281 281 280 279 279 277 276 274 273 271 271 270 269 268 267 266 267 268 270
278 280 281 281 282 284 287 286 286 286 287 285 282 279 277 276 277 278 279 279 280 281 281 280 280 280 280 280 280 279 278 277 275 273 271 271 270 270 268 267 267 268 269 271
280 281 280 281 282 286 286 286 285 286 286 284 280 278 278 277 278 279 280 280 281 282 281 279 279 280 280 280 280 279 277 275 274 272 271 270 270 269 268 268 268 269 270 272
278 280 280 281 284 285 286 286 287 287 285 282 279 277 278 279 279 281 281 281 281 283 282 281 281 280 281 281 280 277 275 274 273 272 271 271 270 269 268 268 269 271 272 274
278 280 280 281 283 286 286 286 286 284 282 280 278 277 278 280 281 282 282 281 282 283 283 282 282 280 280 281 280 277 275 274 274 272 271 271 270 269 269 269 271 273 275 275
280 281 281 282 284 285 284 284 284 283 281 280 278 278 280 280 280 282 283 283 283 283 283 284 285 282 281 281 280 278 276 275 274 272 271 271 270 269 270 271 272 275 277 278
281 281 283 285 285 284 284 282 282 282 282 280 278 278 279 280 282 283 283 283 284 284 283 283 284 285 284 282 281 279 277 276 274 272 270 270 270 270 270 271 274 275 278 278
Height
5702 5702 5700 5698 5695 5694 5693 5692 5691 5692 5691 5691 5691 5693 5695 5697 5698 5700 5701 5703 5705 5707 5708 5710 5712 5713 5715 5717 5718 5720 5722 5723 5725 5726 5728 5730 5731 5732 5733 5734 5735 5736 5737 5738
5696 5695 5693 5691 5689 5687 5686 5685 5685 5685 5684 5684 5684 5686 5688 5689 5690 5692 5693 5694 5696 5698 5699 5701 5703 5704 5705 5707 5709 5710 5712 5714 5715 5717 5718 5720 5721 5723 5724 5725 5726 5727 5728 5728
5689 5689 5686 5684 5683 5681 5680 5679 5678 5677 5677 5676 5676 5678 5681 5682 5683 5684 5685 5686 5687 5689 5690 5692 5694 5695 5696 5697 5699 5701 5702 5704 5705 5707 5708 5710 5711 5713 5714 5715 5716 5717 5717 5718
5682 5681 5679 5678 5676 5674 5674 5673 5671 5670 5670 5670 5670 5669 5674 5675 5676 5676 5677 5678 5679 5680 5681 5683 5684 5685 5686 5688 5689 5691 5692 5693 5695 5696 5698 5700 5701 5703 5704 5705 5706 5706 5707 5707
5676 5675 5673 5672 5670 5668 5667 5666 5665 5664 5662 5662 5664 5662 5665 5667 5668 5669 5669 5670 5670 5671 5672 5673 5674 5675 5676 5677 5679 5681 5682 5683 5684 5686 5687 5689 5690 5692 5693 5694 5695 5696 5696 5697
5670 5669 5667 5666 5664 5663 5661 5660 5659 5657 5656 5656 5658 5656 5657 5659 5660 5661 5661 5662 5662 5662 5663 5663 5664 5665 5666 5667 5669 5670 5672 5673 5674 5675 5677 5678 5679 5681 5682 5683 5684 5684 5685 5686
5665 5663 5662 5660 5659 5658 5656 5655 5653 5650 5650 5650 5651 5649 5651 5652 5652 5652 5653 5653 5653 5653 5654 5654 5654 5655 5656 5657 5659 5660 5661 5662 5663 5664 5666 5667 5668 5669 5670 5671 5672 5673 5674 5674
5657 5657 5656 5654 5653 5652 5650 5649 5648 5645 5644 5644 5644 5643 5645 5645 5645 5645 5645 5645 5645 5645 5645 5645 5645 5646 5647 5648 5648 5650 5651 5651 5652 5653 5654 5656 5657 5658 5659 5660 5661 5661 5662 5663
5650 5650 5650 5648 5646 5645 5644 5643 5642 5640 5637 5637 5637 5637 5638 5638 5637 5637 5637 5637 5637 5637 5637 5637 5637 5637 5637 5638 5638 5639 5640 5641 5641 5642 5643 5644 5645 5646 5647 5648 5649 5650 5651 5651
5644 5643 5643 5642 5640 5639 5638 5637 5635 5633 5631 5630 5630 5630 5631 5630 5630 5630 5629 5629 5628 5628 5628 5628 5628 5628 5628 5628 5628 5628 5629 5630 5630 5631 5632 5633 5634 5635 5636 5637 5638 5638 5639 5640
5636 5636 5636 5635 5634 5633 5631 5630 5628 5626 5625 5624 5623 5626 5624 5623 5622 5621 5621 5621 5620 5620 5620 5619 5619 5619 5619 5618 5618 5618 5619 5619 5619 5620 5621 5622 5623 5624 5625 5626 5626 5627 5628 5628
5629 5628 5627 5628 5627 5625 5624 5623 5622 5621 5619 5618 5616 5620 5618 5616 5614 5613 5613 5613 5612 5612 5611 5610 5610 5610 5609 5609 5609 5609 5609 5609 5609 5609 5610 5611 5612 5613 5614 5615 5615 5616 5617 5617
5622 5621 5619 5619 5621 5619 5617 5616 5615 5613 5612 5610 5610 5613 5611 5609 5607 5606 5605 5605 5604 5603 5602 5602 5601 5601 5600 5600 5599 5599 5599 5599 5599 5599 5599 5600 5601 5602 5603 5604 5604 5605 5605 5606
5614 5613 5613 5613 5611 5610 5609 5608 5607 5605 5604 5603 5603 5603 5603 5601 5599 5598 5597 5596 5595 5594 5593 5593 5592 5592 5591 5590 5590 5590 5589 5589 5588 5589 5589 5590 5591 5591 5592 5593 5593 5594 5594 5594
5606 5606 5605 5604 5603 5602 5601 5601 5600 5598 5597 5596 5596 5595 5595 5593 5591 5590 5589 5588 5587 5586 5585 5584 5583 5582 5582 5581 5581 5580 5579 5579 5579 5579 5579 5580 5580 5581 5581 5582 5582 5583 5583 5583
5598 5598 5597 5597 5596 5594 5593 5593 5592 5591 5589 5588 5587 5587 5587 5585 5583 5582 5581 5580 5579 5578 5577 5576 5574 5574 5573 5572 5571 5571 5570 5570 5569 5569 5569 5570 5570 5571 5571 5571 5572 5572 5572 5573
5590 5590 5589 5589 5588 5586 5586 5587 5585 5583 5582 5580 5579 5580 5578 5576 5575 5574 5573 5572 5571 5570 5569 5568 5566 5565 5564 5563 5563 5562 5561 5560 5560 5560 5560 5560 5560 5561 5561 5561 5562 5562 5562 5562
5583 5582 5581 5580 5580 5578 5581 5578 5577 5575 5574 5572 5571 5570 5569 5568 5567 5566 5565 5564 5563 5562 5561 5559 5558 5557 5556 5555 5554 5552 5552 5551 5551 5551 5550 5550 5551 5551 5551 5552 5552 5552 5553 5553
5575 5574 5573 5572 5570 5569 5572 5570 5568 5566 5566 5565 5563 5562 5561 5560 5559 5559 5558 5556 5555 5554 5553 5551 5550 5549 5548 5546 5545 5544 5543 5542 5542 5542 5542 5541 5541 5542 5542 5543 5543 5543 5543 5544
5568 5567 5567 5565 5562 5562 5564 5562 5559 5559 5557 5557 5555 5554 5553 5552 5552 5552 5550 5548 5547 5546 5544 5543 5542 5541 5539 5538 5537 5536 5535 5534 5534 5533 5533 5533 5533 5533 5533 5534 5534 5534 5534 5535
5561 5559 5559 5557 5554 5554 5556 5553 5552 5552 5551 5549 5546 5545 5544 5544 5543 5543 5541 5540 5539 5538 5536 5535 5533 5532 5531 5530 5529 5528 5527 5526 5526 5525 5525 5525 5525 5525 5525 5525 5526 5526 5526 5526
5553 5552 5551 5550 5548 5550 5547 5545 5545 5543 5541 5539 5538 5537 5536 5536 5535 5534 5533 5532 5531 5529 5528 5526 5525 5524 5523 5522 5521 5520 5519 5519 5518 5517 5517 5517 5517 5517 5517 5517 5517 5517 5517 5517
5546 5546 5544 5543 5544 5541 5539 5538 5536 5535 5533 5532 5530 5530 5529 5528 5527 5526 5525 5524 5522 5521 5520 5518 5517 5516 5515 5513 5512 5512 5511 5510 5510 5509 5509 5509 5509 5509 5509 5509 5509 5509 5509 5509
5539 5537 5536 5535 5535 5533 5531 5530 5528 5527 5525 5523 5522 5522 5521 5520 5519 5518 5517 5516 5514 5513 5512 5510 5509 5508 5507 5505 5504 5503 5503 5502 5501 5501 5501 5500 5500 5500 5501 5501 5501 5501 5501 5500
5531 5529 5528 5527 5527 5525 5523 5522 5521 5519 5517 5516 5515 5514 5513 5512 5511 5510 5509 5508 5506 5505 5504 5503 5501 5500 5499 5498 5496 5495 5495 5494 5493 5493 5493 5492 5492 5492 5493 5493 5493 5493 5492 5491
5524 5522 5520 5520 5519 5517 5516 5515 5513 5511 5510 5509 5508 5507 5506 5505 5504 5502 5501 5500 5498 5497 5496 5495 5494 5492 5491 5490 5489 5488 5487 5486 5485 5485 5485 5484 5484 5484 5485 5485 5485 5484 5484 5483